Date String (YYYY-MM-DD hh:mm:ss) UTC,Instrument flags,absolute air pressure of the measurement (hPa),sample flow rate (lpm),inlet stack bypass flow (lpm),air temperature of the measurement (°C),ambient temperature measured by the external sensor (°C),aerosol sample conditioner tube jacket temperature (°C),OPC LED temperature (°C),internal box temperature (°C),relative humidity of the measurement (%),span deviation,mass concentration of particles derived from Lorenz-Mie calculation of OPC scattering (μg/m³),mass concentration of particles derived from Lorenz-Mie calculation of OPC scattering (μg/m³),mass concentration of particles derived from Lorenz-Mie calculation of OPC scattering (μg/m³)
DateTimeUTC,F1_M11,P_M11,Q1_M11,Q2_M11,T1_M11,T2_M11,T3_M11,T4_M11,T5_M11,U1_M11,ZSPAN_M11,X2_M11,X0_M11,X1_M11
2024-03-08 07:00:00,SystemResetWarning,0828.0,4.99,000.00,019.0,019.1,000.0,027.4,021.1,21.0,0000.0,0005.58,0007.57,0005.42
2024-03-08 07:01:00,SystemResetWarning,0828.0,4.99,000.00,019.0,018.9,000.0,027.4,021.0,21.0,0000.0,0005.56,0007.50,0005.43
2024-03-08 07:02:00,SystemResetWarning,0827.7,5.00,000.00,019.0,018.7,000.0,027.4,020.9,21.0,0000.0,0005.55,0007.47,0005.42
2024-03-08 07:03:00,SystemResetWarning,0827.6,5.00,000.00,019.0,018.6,000.0,027.4,020.8,21.0,0000.0,0005.51,0007.43,0005.40
2024-03-08 07:04:00,SystemResetWarning,0827.9,5.01,000.00,018.9,018.4,000.0,027.4,020.7,21.0,0000.0,0005.51,0007.53,0005.39
2024-03-08 07:05:00,SystemResetWarning,0827.5,5.00,000.00,018.9,018.3,000.0,027.4,020.6,21.0,0000.0,0005.47,0007.57,0005.35
2024-03-08 07:06:00,SystemResetWarning,0827.5,5.00,000.00,018.9,018.2,000.0,027.4,020.6,21.0,0000.0,0005.43,0007.53,0005.32
2024-03-08 07:07:00,SystemResetWarning,0827.5,5.00,000.00,018.8,018.1,000.0,027.4,020.5,21.0,0000.0,0005.43,0007.53,0005.31
2024-03-08 07:08:00,SystemResetWarning,0827.5,5.01,000.00,018.8,018.0,000.0,027.4,020.5,21.0,0000.0,0005.40,0007.49,0005.29
2024-03-08 07:09:00,SystemResetWarning,0827.5,5.00,000.00,018.8,017.9,000.0,027.3,020.5,21.1,0000.0,0005.41,0007.49,0005.30
2024-03-08 07:10:00,SystemResetWarning,0827.5,4.99,000.00,018.8,017.8,000.0,027.3,020.4,21.1,0000.0,0005.41,0007.48,0005.30
2024-03-08 07:11:00,SystemResetWarning,0827.5,5.00,000.00,018.7,017.8,000.0,027.3,020.4,21.1,0000.0,0005.42,0007.49,0005.30
2024-03-08 07:12:00,SystemResetWarning,0827.5,5.01,000.00,018.7,017.7,000.0,027.3,020.4,21.1,0000.0,0005.44,0008.08,0005.31
2024-03-08 07:13:00,SystemResetWarning,0827.6,5.00,000.00,018.7,017.7,000.0,027.3,020.3,21.2,0000.0,0005.47,0008.20,0005.34
2024-03-08 07:14:00,SystemResetWarning,0827.6,5.00,000.00,018.6,017.7,000.0,027.3,020.3,21.2,0000.0,0005.49,0008.19,0005.37
2024-03-08 07:15:00,SystemResetWarning,0827.6,5.00,000.00,018.6,017.6,000.0,027.3,020.3,21.3,0000.0,0005.52,0008.13,0005.41
2024-03-08 07:16:00,SystemResetWarning,0827.6,5.00,000.00,018.6,017.6,000.0,027.3,020.2,21.3,0000.0,0005.57,0008.06,0005.46
2024-03-08 07:17:00,SystemResetWarning,0827.7,5.01,000.00,018.6,018.0,000.0,027.3,020.5,21.2,0000.0,0005.63,0008.13,0005.51
2024-03-08 07:18:00,SystemResetWarning,0827.7,4.99,000.00,018.8,018.9,000.0,027.4,021.0,21.0,0000.0,0005.64,0008.15,0005.54
2024-03-08 07:19:00,SystemResetWarning,0827.7,4.99,000.00,019.0,019.2,000.0,027.4,021.2,20.7,0000.0,0005.65,0008.25,0005.56
2024-03-08 07:20:00,SystemResetWarning,0827.7,5.00,000.00,019.0,019.0,000.0,027.4,021.1,20.6,0000.0,0005.65,0008.27,0005.56
2024-03-08 07:21:00,SystemResetWarning,0827.7,5.00,000.00,019.0,018.8,000.0,027.4,020.9,20.6,0000.0,0005.65,0008.29,0005.56
2024-03-08 07:22:00,SystemResetWarning,0827.7,5.01,000.00,019.0,018.7,000.0,027.4,020.8,20.6,0000.0,0005.67,0008.33,0005.56
2024-03-08 07:23:00,SystemResetWarning,0827.7,5.01,000.00,019.0,018.5,000.0,027.4,020.7,20.6,0000.0,0005.65,0007.85,0005.56
2024-03-08 07:24:00,SystemResetWarning,0827.7,5.00,000.00,018.9,018.3,000.0,027.4,020.7,20.6,0000.0,0005.63,0007.65,0005.54
2024-03-08 07:25:00,SystemResetWarning,0827.7,4.99,000.00,018.9,018.2,000.0,027.4,020.6,20.6,0000.0,0005.62,0008.12,0005.52
2024-03-08 07:26:00,SystemResetWarning,0827.7,4.99,000.00,018.9,018.1,000.0,027.4,020.6,20.7,0000.0,0005.61,0008.13,0005.51
2024-03-08 07:27:00,SystemResetWarning,0827.7,5.00,000.00,018.8,018.0,000.0,027.4,020.5,20.7,0000.0,0005.61,0008.15,0005.49
2024-03-08 07:28:00,SystemResetWarning,0827.7,4.99,000.00,018.8,017.9,000.0,027.4,020.5,20.6,0000.0,0005.59,0008.14,0005.48
2024-03-08 07:29:00,SystemResetWarning,0827.7,5.00,000.00,018.8,017.8,000.0,027.4,020.4,20.7,0000.0,0005.58,0008.08,0005.47
2024-03-08 07:30:00,SystemResetWarning,0827.7,5.01,000.00,018.7,017.8,000.0,027.3,020.4,20.7,0000.0,0005.59,0007.99,0005.48
2024-03-08 07:31:00,SystemResetWarning,0827.7,5.00,000.00,018.7,017.7,000.0,027.3,020.4,20.7,0000.0,0005.61,0008.01,0005.50
2024-03-08 07:32:00,SystemResetWarning,0827.7,5.01,000.00,018.7,017.7,000.0,027.3,020.3,20.7,0000.0,0005.66,0008.09,0005.52
2024-03-08 07:33:00,SystemResetWarning,0827.7,5.00,000.00,018.6,017.6,000.0,027.3,020.3,20.8,0000.0,0005.70,0008.12,0005.57
2024-03-08 07:34:00,SystemResetWarning,0827.7,5.01,000.00,018.6,017.7,000.0,027.3,020.3,20.9,0000.0,0005.78,0008.23,0005.65
2024-03-08 07:35:00,SystemResetWarning,0827.8,5.00,000.00,018.7,018.4,000.0,027.4,020.8,20.7,0000.0,0005.87,0008.30,0005.74
2024-03-08 07:36:00,SystemResetWarning,0827.8,5.00,000.00,019.0,019.2,000.0,027.5,021.2,20.5,0000.0,0005.98,0008.03,0005.84
2024-03-08 07:37:00,SystemResetWarning,0827.8,5.00,000.00,019.1,019.2,000.0,027.5,021.2,20.3,0000.0,0006.06,0008.14,0005.91
2024-03-08 07:38:00,SystemResetWarning,0827.8,4.99,000.00,019.1,019.0,000.0,027.5,021.1,20.2,0000.0,0006.14,0008.25,0005.98
2024-03-08 07:39:00,SystemResetWarning,0827.8,5.00,000.00,019.1,018.8,000.0,027.4,020.9,20.2,0000.1,0006.20,0008.32,0006.03
2024-03-08 07:40:00,SystemResetWarning,0827.8,5.01,000.00,019.0,018.6,000.0,027.4,020.8,20.2,0000.8,0006.27,0008.41,0006.10
2024-03-08 07:41:00,SystemResetWarning,0827.8,5.01,000.00,019.0,018.5,000.0,027.4,020.8,20.2,0000.3,0006.33,0008.49,0006.14
2024-03-08 07:42:00,SystemResetWarning,0827.8,4.99,000.00,019.0,018.3,000.0,027.4,020.7,20.3,0001.1,0006.36,0008.53,0006.17
2024-03-08 07:43:00,SystemResetWarning,0827.8,4.99,000.00,018.9,018.2,000.0,027.4,020.7,20.3,0000.7,0006.38,0008.57,0006.20
2024-03-08 07:44:00,SystemResetWarning,0827.8,5.00,000.00,018.9,018.1,000.0,027.4,020.6,20.3,0000.9,0006.40,0008.60,0006.21
2024-03-08 07:45:00,SystemResetWarning,0827.8,5.01,000.00,018.9,018.0,000.0,027.4,020.5,20.3,0000.5,0006.38,0008.59,0006.19
2024-03-08 07:46:00,SystemResetWarning,0827.8,5.00,000.00,018.8,017.9,000.0,027.4,020.5,20.4,0000.4,0006.37,0008.63,0006.16
2024-03-08 07:47:00,SystemResetWarning,0827.8,5.00,000.00,018.8,017.9,000.0,027.4,020.5,20.4,0000.3,0006.33,0008.54,0006.13
2024-03-08 07:48:00,SystemResetWarning,0827.8,5.00,000.00,018.8,017.8,000.0,027.4,020.4,20.4,0000.2,0006.29,0008.49,0006.10
2024-03-08 07:49:00,SystemResetWarning,0827.8,4.99,000.00,018.7,017.7,000.0,027.4,020.4,20.4,0000.3,0006.25,0008.39,0006.08
2024-03-08 07:50:00,SystemResetWarning,0827.9,5.00,000.00,018.7,017.7,000.0,027.4,020.4,20.5,0000.3,0006.23,0008.40,0006.06
2024-03-08 07:51:00,SystemResetWarning,0827.8,5.01,000.00,018.7,017.7,000.0,027.3,020.3,20.5,0000.2,0006.21,0008.39,0006.03
2024-03-08 07:52:00,SystemResetWarning,0827.9,5.00,000.00,018.6,017.6,000.0,027.3,020.3,20.5,0000.2,0006.20,0008.40,0006.02
2024-03-08 07:53:00,SystemResetWarning,0827.9,5.01,000.00,018.6,017.9,000.0,027.4,020.5,20.5,-000.1,0006.18,0008.36,0005.99
2024-03-08 07:54:00,SystemResetWarning,0828.1,5.00,000.00,018.8,018.7,000.0,027.5,021.0,20.4,-000.0,0006.12,0008.22,0005.95
2024-03-08 07:55:00,SystemResetWarning,0828.1,5.00,000.00,019.0,019.3,000.0,027.5,021.3,20.1,-000.2,0006.04,0008.12,0005.87
2024-03-08 07:56:00,SystemResetWarning,0828.0,4.99,000.00,019.1,019.1,000.0,027.5,021.2,20.0,-000.2,0005.94,0008.01,0005.80
2024-03-08 07:57:00,SystemResetWarning,0828.0,5.00,000.00,019.1,018.9,000.0,027.5,021.1,20.0,0000.0,0005.83,0007.85,0005.70
2024-03-08 07:58:00,SystemResetWarning,0827.9,5.00,000.00,019.1,018.7,000.0,027.5,020.9,20.1,0000.0,0005.73,0007.78,0005.59
2024-03-08 07:59:00,SystemResetWarning,0828.0,5.00,000.00,019.0,018.6,000.0,027.5,020.9,20.1,0000.0,0005.61,0007.65,0005.48
